Regional Weather Roundup
Issued by NWS Portland, ME

Current Version | Previous Version | Text Only | Print | Product List | Glossary Off
Versions: 1 2 3 4 5 6 7 8 9 10 11 12 13 14 15 16 17 18 19 20 21 22 23 24 25 26 27 28 29 30 31 32 33 34 35 36 37 38 39 40 41 42 43 44 45 46 47 48 49 50
000 ASUS41 KGYX 260605 RWRGYX WEATHER ROUNDUP FOR MAINE AND NEW HAMPSHIRE NATIONAL WEATHER SERVICE GRAY ME 200 AM EDT MON JUN 26 2017 MEZ002-005-006-010-012-015-018-020-021-024-026-027-029-260700- MAINE CITY SKY/WX TMP DP RH WIND PRES REMARKS PORTLAND PTCLDY 62 56 80 W5 29.88S 6HR MIN TEMP: 61; 6HR MAX TEMP: 70; 6HR PCP: TRACE; SANFORD CLOUDY 58 55 90 W5 29.91S BAR HARBOR CLOUDY 58 56 93 S3 29.86S WISCASSET CLOUDY 60 57 89 CALM 29.88F 6HR MIN TEMP: 60; 6HR MAX TEMP: 70; ROCKLAND CLOUDY 58 57 97 W5 29.87F FRYEBURG CLOUDY 56 55 97 SW5 29.91S 6HR MIN TEMP: 52; 6HR MAX TEMP: 67; LEWISTONAUBURN FOG 56 56 100 CALM 29.89S VSB 3/4 AUGUSTA CLOUDY 59 57 93 SW5 29.88S 6HR MIN TEMP: 59; 6HR MAX TEMP: 68; 6HR PCP: 0.10; WATERVILLE MOCLDY 56 55 97 CALM 29.84F BANGOR MOCLDY 60 57 89 S5 29.86S 6HR MIN TEMP: 58; 6HR MAX TEMP: 68; 6HR PCP: TRACE; GREENVILLE N/A 52 50 93 CALM 29.85R 6HR MIN TEMP: 51; 6HR MAX TEMP: 58; MILLINOCKET CLEAR 53 53 100 CALM 29.86R 6HR MIN TEMP: 53; 6HR MAX TEMP: 64; 6HR PCP: 0.02; HOULTON PTCLDY 51 51 100 CALM 29.81S 6HR MIN TEMP: 51; 6HR MAX TEMP: 69; 6HR PCP: 0.02; PRESQUE ISLE CLEAR 57 53 86 SW3 29.82R 6HR MIN TEMP: 56; 6HR MAX TEMP: 70; 6HR PCP: TRACE; FRENCHVILLE CLOUDY 57 45 64 W8 29.78F 6HR MIN TEMP: 56; 6HR MAX TEMP: 65; CARIBOU CLOUDY 60 52 74 SW8 29.79S 6HR MIN TEMP: 60; 6HR MAX TEMP: 68; $$ NHZ002-005-008-009-011-012-014-260700- NEW HAMPSHIRE CITY SKY/WX TMP DP RH WIND PRES REMARKS PORTSMOUTH PTCLDY 63 57 79 W6 29.90 ROCHESTER PTCLDY 63 54 72 CALM 29.90S 6HR MIN TEMP: 63; 6HR MAX TEMP: 77; NASHUA MOCLDY 60 57 89 W6 29.93F MANCHESTER CLOUDY 63 55 75 S5 29.91F 6HR MIN TEMP: 63; 6HR MAX TEMP: 76; 6HR PCP: TRACE; CONCORD CLOUDY 66 50 56 W3 29.92F 6HR MIN TEMP: 65; 6HR MAX TEMP: 76; LACONIA MOCLDY N/A N/A N/A SW6 29.91F PLYMOUTH FAIR 55 53 94 CALM 29.92S BERLIN CLOUDY 50 48 93 CALM 29.90S FOG 6HR MIN TEMP: 47; 6HR MAX TEMP: 63; 6HR PCP: TRACE; WHITEFIELD PTCLDY 50 47 89 CALM 29.91S 6HR MIN TEMP: 50; 6HR MAX TEMP: 62; 6HR PCP: TRACE; JAFFREY MOCLDY 59 56 89 S5 29.96S 6HR MIN TEMP: 59; 6HR MAX TEMP: 64; 6HR PCP: 0.02; KEENE CLOUDY 60 55 83 CALM 29.95S LEBANON PTCLDY 58 48 69 VRB5 29.92S 6HR MIN TEMP: 58; 6HR MAX TEMP: 74; MT WASHINGTON MOCLDY 39 37 93 W40 N/A 6HR MIN TEMP: 37; 6HR MAX TEMP: 43; 6HR PCP: 0.18; $$ VTZ005-007-008-260700- VERMONT CITY SKY/WX TMP DP RH WIND PRES REMARKS ST JOHNSBURY N/A 54 54 100 MISG 29.89S MONTPELIER CLEAR 58 48 69 W8G17 29.95S BURLINGTON CLEAR 62 49 62 W10 29.91S $$ MAZ007-012-024-CTZ003-RIZ002-NYZ038-NYZ072-260700- SOUTHERN NEW ENGLAND AND NY CITY SKY/WX TMP DP RH WIND PRES REMARKS BOSTON PTCLDY 66 55 67 W9 29.93S WORCESTER CLEAR 58 53 84 W8 29.97S NANTUCKET CLOUDY 64 63 96 W7 29.94R PROVIDENCE PTCLDY 65 58 78 NW6 29.95F HARTFORD PTCLDY 61 54 77 CALM 29.97F ALBANY MOCLDY 58 56 93 CALM 29.99S NEW YORK CITY PTCLDY 70 52 52 N10 29.98S $$ ANZ081-ANZ082-ANZ150-NHZ014-MEZ023>029-260700- COASTAL MARINE OBSERVATIONS STATION/POSITION TIME TEMP WIND PRES WAVE AIR SEA DIR/SP/G HT/PER (UTC) (F) (DEG/KT/KT) (MB) (FT/S) MATINICUS ROCK 0500 59 290/ 11/ 11 1011.3R ISLE OF SHOALS 0500 64 250/ 21/ 21 1012.2R JEFFREYS LEDGE 0536 59 N/A 3/ 9 CASHES LEDGE BUO 0450 63 61 1011.7 3/ 9 GEORGES BANK BUO 0450 56 55 1014.0 4/ 8 $$ .............KEY.............. WCI - WIND CHILL TC - TEMPERATURE IN CELSIUS VSB - VISIBILITY IN MILES HX - HEAT INDEX FAIR- INDICATES FEW OR NO CLOUDS BELOW 12,000 FT, WITH NO SIGNIFICANT WEATHER AND/OR OBSTRUCTIONS TO VISIBILITY.

USA.gov is the U.S. government's official web portal to all federal, state and local government web resources and services.